ETH241 HAAB-FMMI

Flight info

Callsign ETH241
Flight time N/A
Altitude 39000
Route IMKIT4B IMKIT UT129 ALEMU UN301 MOV UL431 EGPET UT913 KINAN UA401 TN TN1Z
Aircraft B738/M-SDE2E3FGHIRWXY/LB1

Departure

Time N/A
Airport Addis Ababa Bole International Airport (HAAB)

Arrival

Time 2026-04-17 22:15
Airport Ivato International Airport (FMMI)
Time Latitude Longitude Altitude Speed Heading
2026-04-17 22:04 -18.34276 47.12129 12113 ft 374 kts 166°
2026-04-17 22:04 -18.36759 47.12741 11559 ft 367 kts 167°
2026-04-17 22:04 -18.39213 47.13327 11393 ft 358 kts 167°
2026-04-17 22:05 -18.41686 47.13920 11263 ft 371 kts 167°
2026-04-17 22:05 -18.44181 47.14524 11071 ft 360 kts 166°
2026-04-17 22:05 -18.46530 47.15098 10913 ft 339 kts 166°
2026-04-17 22:06 -18.47296 47.15286 10865 ft 333 kts 166°
2026-04-17 22:06 -18.49497 47.15828 10716 ft 314 kts 166°
2026-04-17 22:06 -18.51570 47.16340 10587 ft 300 kts 166°
2026-04-17 22:06 -18.53580 47.16838 10463 ft 290 kts 166°
2026-04-17 22:07 -18.55529 47.17321 10364 ft 287 kts 166°
2026-04-17 22:07 -18.57471 47.17803 10266 ft 292 kts 166°
2026-04-17 22:07 -18.59428 47.18288 10088 ft 284 kts 166°
2026-04-17 22:07 -18.61342 47.18763 9788 ft 280 kts 166°
2026-04-17 22:08 -18.63228 47.19231 9601 ft 275 kts 166°
2026-04-17 22:08 -18.65067 47.19687 9474 ft 267 kts 166°
2026-04-17 22:08 -18.66856 47.20131 9356 ft 260 kts 166°
2026-04-17 22:08 -18.68574 47.20558 9242 ft 252 kts 166°
2026-04-17 22:09 -18.70257 47.20976 9136 ft 245 kts 166°
2026-04-17 22:09 -18.71915 47.21388 8987 ft 246 kts 166°
2026-04-17 22:09 -18.73594 47.21805 8747 ft 249 kts 166°
2026-04-17 22:09 -18.75199 47.22430 8458 ft 246 kts 141°
2026-04-17 22:10 -18.76157 47.23839 8277 ft 236 kts 105°
2026-04-17 22:10 -18.76467 47.25534 7997 ft 235 kts 96°
2026-04-17 22:10 -18.76666 47.27220 7706 ft 226 kts 96°
2026-04-17 22:10 -18.76882 47.28829 7430 ft 216 kts 97°
2026-04-17 22:11 -18.77104 47.30359 7163 ft 205 kts 97°
2026-04-17 22:11 -18.77318 47.31810 6915 ft 194 kts 97°
2026-04-17 22:11 -18.77515 47.33146 6704 ft 177 kts 97°
2026-04-17 22:11 -18.77697 47.34378 6502 ft 163 kts 97°
2026-04-17 22:12 -18.77873 47.35582 6244 ft 165 kts 97°
2026-04-17 22:12 -18.78049 47.36770 6033 ft 163 kts 97°
2026-04-17 22:12 -18.78222 47.37948 5832 ft 162 kts 97°
2026-04-17 22:12 -18.78394 47.39107 5627 ft 162 kts 98°
2026-04-17 22:13 -18.78566 47.40276 5416 ft 162 kts 98°
2026-04-17 22:13 -18.78740 47.41449 5204 ft 161 kts 98°
2026-04-17 22:13 -18.78912 47.42617 4977 ft 160 kts 98°
2026-04-17 22:13 -18.79083 47.43776 4750 ft 159 kts 98°
2026-04-17 22:14 -18.79268 47.44923 4511 ft 158 kts 98°
2026-04-17 22:14 -18.79427 47.46064 4309 ft 156 kts 98°
2026-04-17 22:14 -18.79591 47.47191 4168 ft 153 kts 99°
2026-04-17 22:14 -18.79742 47.48204 4161 ft 122 kts 98°
2026-04-17 22:15 -18.79845 47.48937 4159 ft 77 kts 97°
2026-04-17 22:15 -18.79885 47.49249 4162 ft 21 kts 104°
2026-04-17 22:15 -18.79905 47.49302 4163 ft 2 kts 90°
2026-04-17 22:15 -18.79897 47.49305 4162 ft 1 kts 11°
2026-04-17 22:16 -18.79857 47.49260 4162 ft 14 kts 289°
2026-04-17 22:16 -18.79865 47.49197 4161 ft 13 kts 253°
2026-04-17 22:16 -18.79877 47.49104 4160 ft 13 kts 274°
2026-04-17 22:16 -18.79866 47.49012 4159 ft 12 kts 277°
2026-04-17 22:17 -18.79854 47.48922 4159 ft 12 kts 277°
2026-04-17 22:17 -18.79844 47.48834 4159 ft 12 kts 277°
2026-04-17 22:17 -18.79829 47.48750 4158 ft 12 kts 282°
2026-04-17 22:17 -18.79812 47.48668 4158 ft 11 kts 282°
2026-04-17 22:18 -18.79798 47.48590 4159 ft 11 kts 279°
2026-04-17 22:18 -18.79786 47.48512 4159 ft 11 kts 279°
2026-04-17 22:18 -18.79774 47.48436 4159 ft 10 kts 279°
2026-04-17 22:18 -18.79766 47.48387 4159 ft 0 kts 279°
2026-04-17 22:19 -18.79766 47.48381 4159 ft 5 kts 279°
2026-04-17 22:20 -18.79759 47.48330 4159 ft 8 kts 277°
2026-04-17 22:20 -18.79752 47.48272 4160 ft 8 kts 279°
2026-04-17 22:20 -18.79743 47.48214 4160 ft 8 kts 278°
2026-04-17 22:20 -18.79741 47.48158 4161 ft 8 kts 257°
2026-04-17 22:21 -18.79784 47.48123 4162 ft 9 kts 192°
2026-04-17 22:21 -18.79846 47.48109 4164 ft 10 kts 192°
2026-04-17 22:21 -18.79896 47.48060 4165 ft 11 kts 250°
2026-04-17 22:21 -18.79893 47.47977 4165 ft 12 kts 277°
2026-04-17 22:22 -18.79879 47.47886 4165 ft 11 kts 280°
2026-04-17 22:22 -18.79899 47.47844 4165 ft 8 kts 189°
2026-04-17 22:22 -18.79951 47.47841 4165 ft 7 kts 188°
2026-04-17 22:22 -18.79968 47.47838 4165 ft 1 kts 189°
2026-04-17 22:23 -18.79975 47.47837 4165 ft 1 kts 189°
2026-04-17 22:23 -18.79980 47.47836 4165 ft 0 kts 189°